Flag Weather past 2 weeks in Kiruna, Sweden

Now
25 °F

Clear.


Feels Like: 14 °F
Forecast: 20 / 33 °F
Wind: 12 mph from Southwest

Location: Kiruna Airport

Current Time: Nov 25, 2014 at 10:28:58 PM

Latest Report: Nov 25, 2014 at 9:50 PM


Visibility: 10 mi

Pressure: 29.86 "Hg

Humidity: 93%

Dew point: 23 °F

Location of KirunaLocation

Historic Weather in Kiruna — Graph

°F

Kiruna temperature yesterday

Maximum temperature yesterday: 28 °F (at 7:20 PM)
Minimum temperature yesterday: 25 °F (at 12:20 AM)
Average temperature yesterday: 27 °F

Past Weeks' High & Low Weather Summary

 TemperatureHumidityPressure
High32 °F (Nov 21, 10:50 AM)100% (Nov 10, 9:20 PM)30.48 "Hg (Nov 10, 9:20 PM)
Low-6 °F (Nov 14, 9:50 PM)84% (Nov 13, 8:20 AM)29.59 "Hg (Nov 10, 11:50 PM)
Average16 °F94%30.16 "Hg
* Reported Nov 10 9:20 PM — Nov 25 9:20 PM, Kiruna, Weather by CustomWeather, © 2014

Note: Actual official high and low records may vary slightly from our data, if they occured in-between our weather recording intervals... More about our weather records

Advertising

Kiruna weather history for previous 24 hours

 ConditionsComfort  
Time TempWeatherWind HumidityBarometerVisibility
9:20 PM
Nov 25
25 °FClear.9 mph93%29.86 "Hg10 mi
8:50 PM25 °FClear.6 mph100%29.86 "Hg10 mi
8:20 PM25 °FClear.9 mph100%29.83 "Hg10 mi
7:50 PM25 °FPassing clouds.9 mph100%29.83 "HgN/A
7:20 PM25 °FPassing clouds.10 mph100%29.83 "HgN/A
6:50 PM27 °FPassing clouds.16 mph93%29.83 "HgN/A
6:20 PM27 °FClear.13 mph93%29.83 "Hg10 mi
5:50 PM28 °FClear.12 mph93%29.83 "Hg10 mi
5:20 PM28 °FClear.13 mph93%29.80 "Hg10 mi
4:50 PM28 °FClear.9 mph93%29.80 "Hg10 mi
4:20 PM28 °FPassing clouds.10 mph93%29.83 "HgN/A
3:50 PM28 °FPassing clouds.14 mph93%29.83 "HgN/A
3:20 PM30 °FPassing clouds.16 mph93%29.80 "HgN/A
2:50 PM28 °FLight snow. Passing clouds.13 mph100%29.83 "Hg4 mi
2:20 PM30 °FLight snow. Low clouds.14 mph93%29.83 "Hg3 mi
1:50 PM30 °FLow clouds.9 mph93%29.80 "HgN/A
1:20 PM30 °FMostly cloudy.5 mph93%29.83 "HgN/A
12:50 PM30 °FLight snow. Partly sunny.5 mph93%29.83 "HgN/A
12:20 PM30 °FPartly sunny.5 mph93%29.83 "HgN/A
11:50 AM30 °FLow clouds.5 mph93%29.83 "HgN/A
11:20 AM30 °FLow clouds.5 mph93%29.83 "HgN/A
10:50 AM30 °FLow clouds.3 mph93%29.83 "HgN/A
10:20 AM30 °FLow clouds.5 mph93%29.83 "HgN/A
9:50 AM28 °FLight snow. Mostly cloudy.5 mph100%29.83 "HgN/A
9:20 AM28 °FSnow flurries. Overcast.5 mph100%29.83 "HgN/A
8:50 AM28 °FLight snow. Low clouds.7 mph100%29.83 "HgN/A
8:20 AM30 °FLight snow. Mostly cloudy.7 mph93%29.83 "Hg5 mi
8:00 AM30 °FLight snow. Low clouds.7 mph93%29.83 "HgN/A
7:20 AM28 °FPartly cloudy.7 mph100%29.83 "HgN/A
6:50 AM30 °FMostly cloudy.6 mph93%29.86 "HgN/A
6:20 AM30 °FLight snow. Ice fog.7 mph93%29.86 "Hg4 mi
5:50 AM30 °FLight snow. Partly cloudy.8 mph93%29.86 "Hg3 mi
5:20 AM30 °FSnow flurries. Mostly cloudy.8 mph93%29.86 "Hg3 mi
4:50 AM30 °FLow clouds.6 mph93%29.86 "HgN/A
4:20 AM28 °FPartly cloudy.6 mph100%29.86 "HgN/A
3:50 AM28 °FMostly cloudy.6 mph100%29.89 "HgN/A
3:20 AM28 °FLight snow. Partly cloudy.6 mph100%29.89 "HgN/A
2:50 AM30 °FSnow flurries. Partly cloudy.7 mph93%29.89 "Hg3 mi
2:20 AM30 °FLight snow. Mostly cloudy.7 mph93%29.89 "HgN/A
1:50 AM28 °FLight snow. Mostly cloudy.7 mph100%29.89 "HgN/A
1:20 AM28 °FLight snow. Overcast.6 mph100%29.92 "Hg2 mi
12:50 AM28 °FLight snow. Mostly cloudy.5 mph100%29.92 "Hg2 mi
12:20 AM28 °FLight snow. Ice fog.3 mph100%29.92 "Hg1 mi
11:50 PM
Nov 24
28 °FLight snow. Ice fog.3 mph100%29.92 "Hg1 mi
11:20 PM28 °FLight snow. Ice fog.3 mph100%29.92 "Hg1 mi
10:50 PM28 °FSnow flurries. Mostly cloudy.6 mph100%29.92 "Hg3 mi
10:20 PM28 °FPassing clouds.5 mph100%29.92 "HgN/A
Weather by CustomWeather, © 2014

See weather overviewHow to use our weather pages